{"data":{"norad_id":46352,"intl_designator":"2020-062AD","name":"STARLINK-1653","alt_names":[],"object_type":"PAYLOAD","status":"ACTIVE","operator":null,"country":"US","launch_date":"2020-09-03","launch_site_code":"AFETR","launch_vehicle":null,"mission":null,"orbit_class":"UNKNOWN","rcs_meters":null,"size_class":null,"mass_kg":null,"dimensions":null,"purposes":["comms"],"wikipedia_slug":null,"has_3d_model":false,"image_url":null,"decayed_at":null,"tle_current":{"epoch":"2026-08-19T00:43:06.436704Z","epoch_age_seconds":2831096,"freshness":"OLD","line1":"1 46352U 20062AD  26231.02993561  .04459457  12141-4  86156-3 0  9999","line2":"2 46352  53.0157 228.9900 0001998 352.5340   7.5672 16.31062160330720","mean_motion":16.3106216,"eccentricity":0.0001998,"inclination_deg":53.0157,"raan_deg":228.99,"arg_perigee_deg":352.534,"mean_anomaly_deg":7.5672,"bstar":0.00086156,"rev_number":33072,"period_min":88.286028289688,"perigee_km":188.37464887651,"apogee_km":190.99915130699,"semimajor_km":6567.8239000917,"source":"CELESTRAK","updated_at":"2026-08-19T09:00:42.215716Z"}}}